Preview of NWS' New Version of Forecast
This preview is not operational and should not be used for support decisions.

Regional Weather Roundup (RWR)

Issued by Eureka, CA (EKA)

                            
000
ASUS46 KEKA 200713
RWREKA
Eureka Area Weather Roundup
National Weather Service Eureka CA
1200 AM PDT MON MAY 20 2019

Note: "fair" indicates few or no clouds below 12,000 feet with no
significant weather and/or obstructions to visibility.

Southwest Oregon...
  
CITY           SKY/WX    TMP DP  RH WIND       PRES   REMARKS
MEDFORD        CLOUDY    50  47  89 CALM      29.86S                  
KLAMATH FALLS  PTCLDY    41  36  82 W7        29.82R                  
NORTH BEND     CLOUDY    48  48 100 SE5       29.90S                  
ROSEBURG       CLEAR     49  44  83 CALM      29.86S                  
SEXTON SUMMIT  PTCLDY    41  40  96 W3        29.85S                  
BROOKINGS      CLEAR     47  46  97 CALM      29.89F                  

Northwest California...
  
CITY           SKY/WX    TMP DP  RH WIND       PRES   REMARKS
CRESCENT CITY  CLOUDY    52  49  89 CALM      29.90F                  
MCKINLEYVILLE  CLEAR     44  44 100 E3        29.91S                  
EUREKA           N/A     49  32  52 SW3       29.91S                  
FORTUNA        MOCLDY    46  45  93 SE6       29.92S                  
WEAVERVILLE    CLOUDY    41  41 100 CALM      29.88F                  
TRINITY CENTER   N/A     45  39  81 W5        29.87F                  
UKIAH          CLOUDY    51  46  83 CALM      29.89S                  

North & Central California...
  
CITY           SKY/WX    TMP DP  RH WIND       PRES   REMARKS
YREKA          CLOUDY    49  41  74 SE5       29.86R                  
MOUNT SHASTA   LGT RAIN  41  39  93 CALM      29.85S                  
REDDING        CLOUDY    54  46  74 S7        29.89R                  
RED BLUFF      PTCLDY    50  45  83 S6        29.90S                  
CHICO            N/A     48  45  87 CALM      29.92R                  
YUBA CITY      CLEAR     46  45  96 CALM      29.92R FOG              
SACRAMENTO     MOCLDY    49  48  97 CALM      29.90R                  
SANTA ROSA     PTCLDY    47  47 100 N3        29.89R                  
NAPA           MOCLDY    51  49  92 N7        29.89S                  
TRAVIS AFB     NOT AVBL                                               
SAN FRANCISCO  MOCLDY    52  48  86 SW3       29.89R                  
OAKLAND        MOCLDY    56  48  74 SW3       29.90R                  
STOCKTON       NOT AVBL                                               
SALINAS        CLOUDY    54  50  86 CALM      29.90S                  
MONTEREY       CLOUDY    53  50  89 SW3       29.91S                  

$$